Tracking 29528 objects as of 12-Sep-2024
HD Live streaming from Space Station
objects crossing your sky now

ONEWEB-0095

Track ONEWEB-0095 now!
10-day predictions
ONEWEB-0095 is classified as:


NORAD ID: 45436
Int'l Code: 2020-020N
Perigee: 1,223.0 km
Apogee: 1,226.7 km
Inclination: 87.9 °
Period: 109.8 minutes
Semi major axis: 7595 km
RCS: Unknown
Launch date: March 21, 2020
Source: United Kingdom (UK)
Launch site: TYURATAM MISSILE AND SPACE COMPLEX (TTMTR)
Your satellite tracking list
Your tracking list is empty




NASA's NSSDC Master Catalog

Two Line Element Set (TLE):
1 45436U 20020N   24256.17021305  .00000395  00000-0  10782-2 0  9991
2 45436  87.8974 149.1370 0002426  59.5424 300.5943 13.11417487218401
Source of the keplerian elements: AFSPC